Time,TemperatureF,DewpointF,PressureIn,WindDirection,WindDirectionDegrees,WindSpeedMPH,WindSpeedGustMPH,Humidity,HourlyPrecipIn,Conditions,Clouds,dailyrainin,SoftwareType,DateUTC
2013-01-26 00:23:00,17.0,2.0,-100.00,West,267,2.0,-999.0,52,0.00,,,-99.99,,2013-01-26 05:23:00,
2013-01-26 00:33:00,17.0,2.0,-100.00,West,267,2.0,-999.0,52,0.00,,,-99.99,,2013-01-26 05:33:00,
2013-01-26 00:42:00,17.0,2.0,-100.00,West,267,2.0,-999.0,52,0.00,,,-99.99,,2013-01-26 05:42:00,
2013-01-26 01:21:00,15.0,13.0,-100.00,WSW,244,3.0,-999.0,90,0.00,,,-99.99,,2013-01-26 06:21:00,
2013-01-26 01:32:00,15.0,13.0,-100.00,WSW,244,3.0,-999.0,90,0.00,,,-99.99,,2013-01-26 06:32:00,
2013-01-26 01:42:00,15.0,13.0,-100.00,WSW,244,3.0,-999.0,90,0.00,,,-99.99,,2013-01-26 06:42:00,
2013-01-26 02:22:00,14.0,12.0,-100.00,West,262,2.0,-999.0,91,0.00,,,-99.99,,2013-01-26 07:22:00,
2013-01-26 02:33:00,14.0,12.0,-100.00,West,262,2.0,-999.0,91,0.00,,,-99.99,,2013-01-26 07:33:00,
2013-01-26 02:42:00,14.0,12.0,-100.00,West,262,2.0,-999.0,91,0.00,,,-99.99,,2013-01-26 07:42:00,
2013-01-26 03:22:00,14.0,12.0,-100.00,West,271,1.0,-999.0,90,0.00,,,-99.99,,2013-01-26 08:22:00,
2013-01-26 03:32:00,14.0,12.0,-100.00,West,271,1.0,-999.0,90,0.00,,,-99.99,,2013-01-26 08:32:00,
2013-01-26 03:42:00,14.0,12.0,-100.00,West,271,1.0,-999.0,90,0.00,,,-99.99,,2013-01-26 08:42:00,
2013-01-26 04:22:00,14.0,11.0,-100.00,West,264,1.0,-999.0,88,0.00,,,-99.99,,2013-01-26 09:22:00,
2013-01-26 04:32:00,14.0,11.0,-100.00,West,264,1.0,-999.0,88,0.00,,,-99.99,,2013-01-26 09:32:00,
2013-01-26 04:42:00,14.0,11.0,-100.00,West,264,1.0,-999.0,88,0.00,,,-99.99,,2013-01-26 09:42:00,
2013-01-26 05:21:00,13.0,10.0,-100.00,West,264,1.0,-999.0,88,0.00,,,-99.99,,2013-01-26 10:21:00,
2013-01-26 05:32:00,13.0,10.0,-100.00,West,264,1.0,-999.0,88,0.00,,,-99.99,,2013-01-26 10:32:00,
2013-01-26 05:42:00,13.0,10.0,-100.00,West,264,1.0,-999.0,88,0.00,,,-99.99,,2013-01-26 10:42:00,
2013-01-26 06:22:00,10.0,7.0,-100.00,NNW,345,1.0,-999.0,91,0.00,,,-99.99,,2013-01-26 11:22:00,
2013-01-26 06:32:00,10.0,7.0,-100.00,NNW,345,1.0,-999.0,91,0.00,,,-99.99,,2013-01-26 11:32:00,
2013-01-26 06:42:00,10.0,7.0,-100.00,NNW,345,1.0,-999.0,91,0.00,,,-99.99,,2013-01-26 11:42:00,
2013-01-26 07:23:00,10.0,9.0,-100.00,West,275,0.0,-999.0,94,0.00,,,-99.99,,2013-01-26 12:23:00,
2013-01-26 07:33:00,10.0,9.0,-100.00,West,275,0.0,-999.0,94,0.00,,,-99.99,,2013-01-26 12:33:00,
2013-01-26 07:42:00,10.0,9.0,-100.00,West,275,0.0,-999.0,94,0.00,,,-99.99,,2013-01-26 12:42:00,
2013-01-26 08:22:00,12.0,9.0,-100.00,WSW,253,2.0,-999.0,86,0.00,,,-99.99,,2013-01-26 13:22:00,
2013-01-26 08:33:00,12.0,9.0,-100.00,WSW,253,2.0,-999.0,86,0.00,,,-99.99,,2013-01-26 13:33:00,
2013-01-26 08:42:00,12.0,9.0,-100.00,WSW,253,2.0,-999.0,86,0.00,,,-99.99,,2013-01-26 13:42:00,
2013-01-26 09:22:00,12.0,7.0,-100.00,WSW,248,2.0,-999.0,78,0.00,,,-99.99,,2013-01-26 14:22:00,
2013-01-26 09:32:00,12.0,7.0,-100.00,WSW,248,2.0,-999.0,78,0.00,,,-99.99,,2013-01-26 14:32:00,
2013-01-26 09:43:00,12.0,7.0,-100.00,WSW,248,2.0,-999.0,78,0.00,,,-99.99,,2013-01-26 14:43:00,
2013-01-26 10:22:00,17.0,6.0,-100.00,SW,236,3.0,-999.0,62,0.00,,,-99.99,,2013-01-26 15:22:00,
2013-01-26 10:33:00,17.0,6.0,-100.00,SW,236,3.0,-999.0,62,0.00,,,-99.99,,2013-01-26 15:33:00,
2013-01-26 10:43:00,17.0,6.0,-100.00,SW,236,3.0,-999.0,62,0.00,,,-99.99,,2013-01-26 15:43:00,
2013-01-26 11:22:00,20.0,3.0,-100.00,WSW,244,3.0,-999.0,47,0.00,,,-99.99,,2013-01-26 16:22:00,
2013-01-26 11:33:00,20.0,3.0,-100.00,WSW,244,3.0,-999.0,47,0.00,,,-99.99,,2013-01-26 16:33:00,
2013-01-26 11:43:00,20.0,3.0,-100.00,WSW,244,3.0,-999.0,47,0.00,,,-99.99,,2013-01-26 16:43:00,
2013-01-26 12:23:00,21.0,5.0,-100.00,SW,236,5.0,-999.0,49,0.00,,,-99.99,,2013-01-26 17:23:00,
2013-01-26 12:33:00,21.0,5.0,-100.00,SW,236,5.0,-999.0,49,0.00,,,-99.99,,2013-01-26 17:33:00,
2013-01-26 12:42:00,21.0,5.0,-100.00,SW,236,5.0,-999.0,49,0.00,,,-99.99,,2013-01-26 17:42:00,
2013-01-26 13:22:00,23.0,5.0,-100.00,SW,235,5.0,-999.0,46,0.00,,,-99.99,,2013-01-26 18:22:00,
2013-01-26 13:33:00,23.0,5.0,-100.00,SW,235,5.0,-999.0,46,0.00,,,-99.99,,2013-01-26 18:33:00,
2013-01-26 13:42:00,23.0,5.0,-100.00,SW,235,5.0,-999.0,46,0.00,,,-99.99,,2013-01-26 18:42:00,
2013-01-26 14:22:00,24.0,3.0,-100.00,SW,231,7.0,-999.0,40,0.00,,,-99.99,,2013-01-26 19:22:00,
2013-01-26 14:33:00,24.0,3.0,-100.00,SW,231,7.0,-999.0,40,0.00,,,-99.99,,2013-01-26 19:33:00,
2013-01-26 14:42:00,24.0,3.0,-100.00,SW,231,7.0,-999.0,40,0.00,,,-99.99,,2013-01-26 19:42:00,
2013-01-26 15:22:00,23.0,2.0,-100.00,SW,236,6.0,-999.0,39,0.00,,,-99.99,,2013-01-26 20:22:00,
2013-01-26 15:32:00,23.0,2.0,-100.00,SW,236,6.0,-999.0,39,0.00,,,-99.99,,2013-01-26 20:32:00,
2013-01-26 15:42:00,23.0,2.0,-100.00,SW,236,6.0,-999.0,39,0.00,,,-99.99,,2013-01-26 20:42:00,
2013-01-26 16:23:00,22.0,2.0,-100.00,WSW,243,6.0,-999.0,41,0.00,,,-99.99,,2013-01-26 21:23:00,
2013-01-26 16:32:00,22.0,2.0,-100.00,WSW,243,6.0,-999.0,41,0.00,,,-99.99,,2013-01-26 21:32:00,
2013-01-26 16:43:00,22.0,2.0,-100.00,WSW,243,6.0,-999.0,41,0.00,,,-99.99,,2013-01-26 21:43:00,
2013-01-26 17:22:00,20.0,0.0,-100.00,WSW,244,5.0,-999.0,41,0.00,,,-99.99,,2013-01-26 22:22:00,
2013-01-26 17:32:00,20.0,0.0,-100.00,WSW,244,5.0,-999.0,41,0.00,,,-99.99,,2013-01-26 22:32:00,
2013-01-26 17:42:00,20.0,0.0,-100.00,WSW,244,5.0,-999.0,41,0.00,,,-99.99,,2013-01-26 22:42:00,
2013-01-26 18:22:00,18.0,-3.0,-100.00,WSW,254,4.0,-999.0,39,0.00,,,-99.99,,2013-01-26 23:22:00,
2013-01-26 18:32:00,18.0,-3.0,-100.00,WSW,254,4.0,-999.0,39,0.00,,,-99.99,,2013-01-26 23:32:00,
2013-01-26 18:42:00,18.0,-3.0,-100.00,WSW,254,4.0,-999.0,39,0.00,,,-99.99,,2013-01-26 23:42:00,
2013-01-26 19:22:00,18.0,-5.0,-100.00,WSW,253,5.0,-999.0,36,0.00,,,-99.99,,2013-01-27 00:22:00,
2013-01-26 19:32:00,18.0,-5.0,-100.00,WSW,253,5.0,-999.0,36,0.00,,,-99.99,,2013-01-27 00:32:00,
2013-01-26 19:42:00,18.0,-5.0,-100.00,WSW,253,5.0,-999.0,36,0.00,,,-99.99,,2013-01-27 00:42:00,
2013-01-26 20:22:00,16.0,-3.0,-100.00,WSW,251,6.0,-999.0,42,0.00,,,-99.99,,2013-01-27 01:22:00,
2013-01-26 20:32:00,16.0,-3.0,-100.00,WSW,251,6.0,-999.0,42,0.00,,,-99.99,,2013-01-27 01:32:00,
2013-01-26 20:42:00,16.0,-3.0,-100.00,WSW,251,6.0,-999.0,42,0.00,,,-99.99,,2013-01-27 01:42:00,
2013-01-26 21:22:00,14.0,-2.0,-100.00,WSW,250,4.0,-999.0,48,0.00,,,-99.99,,2013-01-27 02:22:00,
2013-01-26 21:32:00,14.0,-2.0,-100.00,WSW,250,4.0,-999.0,48,0.00,,,-99.99,,2013-01-27 02:32:00,
2013-01-26 21:42:00,14.0,-2.0,-100.00,WSW,250,4.0,-999.0,48,0.00,,,-99.99,,2013-01-27 02:42:00,
2013-01-26 22:21:00,14.0,1.0,-100.00,WSW,242,5.0,-999.0,56,0.00,,,-99.99,,2013-01-27 03:21:00,
2013-01-26 22:32:00,14.0,1.0,-100.00,WSW,242,5.0,-999.0,56,0.00,,,-99.99,,2013-01-27 03:32:00,
2013-01-26 22:42:00,14.0,1.0,-100.00,WSW,242,5.0,-999.0,56,0.00,,,-99.99,,2013-01-27 03:42:00,
2013-01-26 23:22:00,13.0,2.0,-100.00,WSW,245,5.0,-999.0,60,0.00,,,-99.99,,2013-01-27 04:22:00,
2013-01-26 23:32:00,13.0,2.0,-100.00,WSW,245,5.0,-999.0,60,0.00,,,-99.99,,2013-01-27 04:32:00,
2013-01-26 23:42:00,13.0,2.0,-100.00,WSW,245,5.0,-999.0,60,0.00,,,-99.99,,2013-01-27 04:42:00,